{"data":{"norad_id":68675,"epoch":"2026-05-25T03:05:31.627392Z","epoch_age_seconds":57701,"freshness":"FRESH","line1":"1 68675U 26077P   26145.12883828  .00019308  00000+0  59872-3 0  9996","line2":"2 68675  97.2865  16.7214 0001044  81.2169 278.9192 15.33453699  6875","mean_motion":15.33453699,"eccentricity":0.0001044,"inclination_deg":97.2865,"raan_deg":16.7214,"arg_perigee_deg":81.2169,"mean_anomaly_deg":278.9192,"bstar":0.00059872,"rev_number":687,"period_min":93.905671944256,"perigee_km":464.80281498861,"apogee_km":466.23177000489,"semimajor_km":6843.6542924968,"source":"CELESTRAK","updated_at":"2026-05-25T13:38:21.994294Z"}}